Alderney, United Kingdom

4:40 PM BST on May 21, 2018 (GMT +0100)
Alderney

Weather History for EGJA - October, 2012

Change the Weather History Date:

Monday, October 8, 2012

  Actual Average Record
Temperature  
Mean Temperature 60 °F -  
Max Temperature 60 °F 56 °F 66 °F (2010)
Min Temperature 59 °F 51 °F 51 °F (2004)
Degree Days  
Heating Degree Days 6    
Growing Degree Days 10 (Base 50)    
Moisture  
Dew Point 60 °F    
Average Humidity 100    
Maximum Humidity 100    
Minimum Humidity 100    
Precipitation  
Precipitation 0.00 in - - ()
Sea Level Pressure  
Sea Level Pressure 29.89 in    
Wind  
Wind Speed 12 mph ()    
Max Wind Speed 21 mph    
Max Gust Speed -    
Visibility 0.1 miles    
Events Fog , Rain    
Averages and records for this station are not official NWS values.
T = Trace of Precipitation, MM = Missing Value Source: Averaged Metar Reports

Daily Weather History Graph

Daily Weather History Graph

Search for Another Location

Airport or City:

Astronomy

Oct. 08, 2012 Rise Set
Actual Time 7:19 AM BST 6:31 PM BST
Civil Twilight 6:47 AM BST 7:03 PM BST
Nautical Twilight 6:10 AM BST 7:40 PM BST
Astronomical Twilight 5:32 AM BST 8:18 PM BST
Moon No Moon Rise 2:46 PM BST (10/8)
Length of Visible Light 12h 16m
Length of Day
11h 11m
Waning Gibbous, 48% of the Moon is Illuminated
Oct 8
Waning Gibbous
Oct 15
New
Oct 22
First Quarter
Oct 29
Full
Nov 7
Last Quarter

Hourly Weather History & Observations

Time (BST) Temp. Dew Point Humidity Pressure Visibility Wind Dir Wind Speed Gust Speed Precip Events Conditions
6:50 AM 59.0 °F 59.0 °F 100% 29.92 in 0.1 mi SSE 9.2 mph - N/A Fog , Rain Rain
7:20 AM 59.0 °F 59.0 °F 100% 29.89 in 0.1 mi SSE 11.5 mph - N/A Fog , Rain Rain
7:50 AM 60.8 °F 60.8 °F 100% 29.89 in 0.2 mi South 11.5 mph - N/A Fog , Rain Light Rain
8:20 AM 60.8 °F 60.8 °F 100% 29.92 in 0.4 mi SW 13.8 mph - N/A Fog Light Drizzle
8:50 AM 60.8 °F 60.8 °F 100% 29.92 in 0.2 mi SW 19.6 mph - N/A Fog , Rain Rain
9:20 AM 60.8 °F 60.8 °F 100% 29.92 in 0.3 mi SW 13.8 mph - N/A Fog , Rain Rain
9:50 AM 60.8 °F 60.8 °F 100% 29.92 in 0.1 mi SW 18.4 mph - N/A Fog Light Drizzle
10:20 AM 60.8 °F 60.8 °F 100% 29.92 in 0.2 mi SW 20.7 mph - N/A Fog , Rain Rain
10:50 AM 60.8 °F 60.8 °F 100% 29.92 in 0.1 mi SW 13.8 mph - N/A Fog , Rain Rain
11:20 AM 60.8 °F 60.8 °F 100% 29.92 in 0.2 mi SW 20.7 mph - N/A Fog Light Drizzle
11:50 AM 60.8 °F 60.8 °F 100% 29.89 in 0.1 mi SW 19.6 mph - N/A Fog Light Drizzle
12:20 PM 60.8 °F 60.8 °F 100% 29.92 in 0.1 mi SW 19.6 mph - N/A Fog Drizzle
12:50 PM 60.8 °F 60.8 °F 100% 29.89 in 0.1 mi SW 17.3 mph - N/A Fog Light Drizzle
1:20 PM 60.8 °F 60.8 °F 100% 29.89 in 0.1 mi SW 17.3 mph - N/A Fog , Rain Light Drizzle
1:50 PM 60.8 °F 60.8 °F 100% 29.89 in 0.1 mi SW 16.1 mph - N/A Fog Light Drizzle
2:20 PM 60.8 °F 60.8 °F 100% 29.89 in 0.1 mi WSW 15.0 mph - N/A Fog , Rain Light Rain
2:50 PM 60.8 °F 60.8 °F 100% 29.89 in 0.1 mi West 13.8 mph - N/A Fog Light Drizzle
3:20 PM 60.8 °F 60.8 °F 100% 29.86 in - West 11.5 mph - N/A Fog Fog
3:50 PM 60.8 °F 60.8 °F 100% 29.86 in 0.1 mi West 10.4 mph - N/A Fog Fog
4:20 PM 60.8 °F 60.8 °F 100% 29.86 in 0.0 mi West 11.5 mph - N/A Fog Fog
4:50 PM 60.8 °F 60.8 °F 100% 29.86 in 0.0 mi WNW 11.5 mph - N/A Fog Fog
5:20 PM 59.0 °F 59.0 °F 100% 29.86 in 0.0 mi West 10.4 mph - N/A Fog Fog
5:50 PM 59.0 °F 59.0 °F 100% 29.86 in 0.0 mi West 10.4 mph - N/A Fog Fog
6:20 PM 59.0 °F 59.0 °F 100% 29.89 in 0.0 mi West 9.2 mph - N/A Fog Fog